Orbital elements:
    C/2003 G1 (LINEAR)
Epoch 2003 Feb. 10.0 TT = JDT 2452680.5
T 2003 Feb. 3.64876 TT                                  MPC
q   4.9163073            (2000.0)            P               Q
z  -0.0002618      Peri.   11.42083     -0.32609230     +0.43245263
 +/-0.0000151      Node   246.09214     -0.92351719     -0.33568508
e   1.0012871      Incl.   66.85604     -0.20194013     +0.83683944
Residuals in seconds of arc
030408 704  0.2+  1.4-    030504 048  0.1-  0.9-    030530 H41  0.1+  0.8+
030408 704  0.9+  0.3+    030504 048  0.2-  1.4-    030530 H72  0.2-  0.5-
030408 704  0.2-  1.1+    030505 166  0.2-  0.1-    030530 H72  0.6-  0.4-
030409 J95  0.0   0.0     030505 166  0.2-  0.0     030530 H72  0.7-  0.1-
030409 J95  0.8+  0.3+    030505 166  0.0   0.0     030530 H72  0.1+  0.2-
030409 557  0.0   0.0     030505 166  0.0   0.4+    030530 H72  0.7-  0.1+
030409 118  0.4+  0.4+    030505 166  0.1+  0.1+    030530 H72  0.4+  0.2-
030409 J95  0.5+  0.4+    030505 118  0.0   0.4+    030530 H72  0.6+  0.0
030409 557  0.0   0.2+    030505 118  0.1+  0.6+    030530 J87  0.8+  0.1-
030409 557  0.0   0.1+    030505 118  0.1+  0.5+    030530 J87  0.6+  0.5+
030409 118  0.4+  0.4+    030505 118  0.2+  0.7+    030530 J87  0.5-  0.5+
030409 J95  0.1+  0.1+    030505 118  0.4+  0.6+    030531 A01  0.4-  0.4-
030409 557  0.0   0.1+    030505 360  0.1+  0.4+    030531 A01  0.4-  0.9-
030409 118  0.2+  0.6+    030505 360  0.0   0.6+    030531 A01  0.3-  1.1-
030409 J95  0.4-  0.3+    030505 561  0.2+  0.6+    030531 939  0.1-  0.5-
030409 118  0.3+  0.6+    030505 561  0.3+  0.7+    030531 939  0.5-  0.5-
030409 J95  0.1-  0.1+    030505 561  0.4+  0.8+    030531 939  1.0-  0.2-
030409 J95  0.0   0.1+    030505 561  0.2+  0.9+    030531 H72  0.2-  0.1+
030409 J95  0.4+  0.2+    030506 048  0.3+  0.9-    030531 H72  0.6-  0.3+
030409 854  1.7-  0.3-    030506 048  0.6+  0.7-    030531 H72  0.9-  0.0
030409 854  1.0-  1.8-    030506 048  0.3+  0.6-    030531 H72  0.2+  0.8-
030409 704 (1.8+  2.3+)   030506 048  0.0   0.8-    030531 H72  0.1-  0.2+
030409 704  1.5+  1.9+    030506 048  0.8+  0.7-    030531 H72  0.4+  0.4+
030409 704 (2.7+  2.6+)   030506 048  0.2-  1.1-    030531 H41  0.8-  0.5+
030409 734  0.3+  0.4+    030506 048  0.7+  1.0-    030531 H41  0.5-  0.4+
030409 704  0.3+  0.4+    030506 048  0.0   0.7-    030531 H41  0.2-  0.0
030409 704  0.3+  0.4+    030506 048  0.1+  1.3-    030531 213  0.0   0.4+
030409 704  0.8+  0.7+    030506 048  0.5-  0.9-    030531 213  0.1+  0.3-
030409 734  0.3+  0.3+    030506 H41  1.1-  0.8+    030601 A32  0.2+  0.7+
030409 704  0.1-  0.2-    030506 H41  0.9-  0.9+    030601 A32  0.2-  0.5+
030409 704  0.4+  0.0     030508 048  0.2+  0.5-    030601 A32  0.1+  0.6+
030409 926  0.3+  0.5+    030508 048  0.2-  0.8-    030601 333  0.1-  0.1+
030409 704  0.2+  0.1-    030508 048  0.3-  0.5-    030601 333  0.7-  1.3-
030409 926  0.1-  0.1+    030508 048  0.3-  0.4-    030601 333  0.1-  0.2-
030409 704  1.8-  0.5-    030508 048  0.3-  0.6-    030601 333  0.7-  1.3-
030409 704  0.0   0.7-    030508 048  0.3-  0.5-    030601 333  0.0   0.2-
030409 704  0.3+  0.0     030508 048  0.3-  0.7-    030601 333  0.7-  1.2-
030409 926  0.3+  0.1+    030508 048  0.4-  0.8-    030601 333  0.2-  0.0
030409 704  0.9-  0.3-    030508 048  0.0   0.5-    030601 333  1.9-  2.0-
030409 704  0.6-  0.3+    030508 048  0.3-  0.4-    030601 367  0.7-  0.0
030410 246  0.1+  0.9-    030509 340  0.2+  0.1+    030601 367  0.6-  0.5-
030410 246  0.1+  1.4-    030509 340  0.5+  0.5-    030601 367  0.2+  0.0
030410 246  0.0   0.0     030509 340  0.4-  0.4-    030601 360  0.2-  0.5+
030410 246  0.0   0.0     030509 367  0.2-  0.3-    030601 360  0.1-  0.3+
030410 246  0.1-  0.1+    030509 367  0.3-  0.1-    030601 900  0.2-  0.4-
030410 246  0.1+  0.5+    030509 367  0.0   0.2-    030601 900  0.0   0.3-
030410 246  0.0   0.1+    030509 349  0.0   0.1+    030601 349  0.0   0.1+
030410 246  0.1+  0.5+    030509 349  0.1-  0.3+    030601 349  0.2-  0.3+
030410 557  0.3-  0.1+    030509 349  0.5+  0.0     030601 349  0.5-  0.2+
030410 557  0.1+  0.2+    030509 349  0.1-  0.3+    030601 379  0.8-  0.1-
030410 704  0.3-  1.3-    030509 360  0.0   0.1+    030601 379  0.6-  0.4-
030410 704  0.4-  1.9-    030509 360  0.1-  0.2+    030601 151  0.3-  0.4+
030410 704  0.4-  0.9-    030510 213  0.2+  0.6-    030601 151  0.1-  0.4+
030410 704  0.1+  0.9-    030510 213  0.8+  1.4-    030601 151  0.2-  0.5+
030410 734  0.4+  0.4+    030510 213 (1.6+  5.5-)   030601 151  0.2-  0.6+
030410 704  0.0   0.0     030510 232  0.8-  0.5+    030601 048  0.1+  0.2+
030410 704  0.3+  0.1-    030510 232  0.6-  0.6+    030601 048  0.5-  0.2+
030410 734  0.5+  0.4+    030510 232  0.5-  1.2+    030601 048  0.2-  0.3+
030410 704  0.4-  0.1-    030510 170  0.8-  0.0     030601 048  0.1+  0.3-
030410 704  0.4-  0.0     030510 170  0.5-  0.1+    030601 048  0.3-  0.2-
030410 704  1.0-  0.5+    030510 170  0.7-  0.1-    030601 048  0.1-  0.2-
030410 704  0.4-  0.5+    030510 E14  0.1+  0.3+    030601 048  0.2+  0.2+
030410 349  0.1-  0.4+    030510 E14  0.0   0.1+    030601 048  0.4-  0.3+
030410 349  0.2+  0.3-    030511 J87  0.3+  0.5+    030602 048  0.1-  0.5-
030410 349  0.2-  0.2+    030511 J87  0.2+  0.5+    030602 048  0.3+  0.2+
030410 349  0.4+  0.6-    030511 J87  0.2+  0.7+    030602 H72  1.2+  0.4+
030411 H41  0.1+  0.1+    030511 J87  0.2+  0.6+    030602 H72  1.5+  0.6+
030411 H41  0.9+  0.0     030511 H41  0.3+  0.6+    030602 H72  0.2+  0.0
030412 118  0.6+  0.2+    030511 H41  0.3+  0.4+    030602 H72  0.3+  0.0
030412 118  0.2+  0.2+    030511 683 (2.2-  0.9-)   030602 H72  1.2+  0.2+
030412 118  0.4+  0.4+    030511 683 (0.5-  2.4-)   030602 H72  0.5-  0.1+
030412 118  0.1+  0.0     030511 683  0.8-  0.7-    030602 H72  0.1-  0.1-
030412 J95  0.4+  0.7+    030512 683 (2.2-  0.4+)   030602 048  0.2-  0.3-
030412 J95  0.9+  0.2+    030512 683  1.3-  1.5-    030602 048  0.3-  0.1-
030412 850  0.0   0.6-    030512 683 (2.0-  1.5-)   030602 048  0.7-  0.9-
030412 850  0.4-  0.3-    030513 H41  0.0   0.5+    030602 048  0.1-  0.7-
030412 704  0.2+  0.4-    030515 H41  1.2+  1.3+    030602 048  0.4-  0.4-
030412 704  0.7-  0.9-    030515 H41  0.7+  0.9+    030602 048  0.4-  0.6-
030412 704  0.1+  1.0-    030517 213  0.6-  0.3+    030602 048  0.0   0.7-
030412 704  0.6-  0.9-    030517 213  0.1-  0.2+    030602 048  0.4-  0.2-
030412 704  0.4+  0.7-    030517 213  0.4+  0.3+    030602 048  0.5-  0.2-
030412 704  0.5-  1.2-    030518 859  0.2-  0.0     030602 048  0.3-  0.2+
030412 704 (1.4-  3.6-)   030518 859  0.6-  0.4-    030603 H72  0.6-  0.4+
030412 704  1.0-  2.0-    030518 859  1.1-  0.6-    030603 H72  0.8-  0.2+
030412 704  0.0   1.5+    030519 H41  0.7-  0.5-    030603 H72  0.5+  0.1+
030412 704 (0.1-  2.4+)   030519 H41  0.8+  0.5+    030603 H72  0.0   0.1-
030413 H41  0.6+  0.3-    030521 750  0.1+  0.5+    030603 H72  0.4-  0.1-
030413 850  0.1-  0.4+    030521 750  0.1+  0.7+    030603 H72  0.0   0.4-
030413 850  0.4-  0.2+    030521 H41  0.5+  0.3+    030603 H41  0.4-  0.5+
030413 850  1.1-  0.4-    030521 H41  0.3-  0.3+    030603 H41  0.3-  0.2+
030413 H41 (6.2+  0.1+)   030521 349  0.1-  0.6+    030603 048  0.7-  0.5-
030413 204  0.1+  0.2-    030521 349  0.0   0.1+    030603 048  0.4-  0.4-
030413 204  0.2+  0.7+    030521 349  0.6-  0.1+    030603 048  1.0+  0.3+
030413 204  0.1-  0.6+    030521 349  0.2-  0.1-    030603 048  0.3-  0.2+
030413 204  0.4+  0.2+    030521 349  0.1+  0.3+    030603 048  0.6-  0.1+
030414 204  0.2+  0.4+    030522 945  0.6-  0.7+    030603 048  0.3+  0.5-
030415 H41  0.3-  0.2-    030522 945  1.0-  0.6+    030603 048  0.0   0.0
030415 340  0.0   0.4-    030522 945  1.1-  0.2+    030603 048  0.3-  0.3+
030415 340  0.1-  0.5-    030522 945  1.7-  0.7+    030603 048  0.6+  0.4+
030415 340  1.2-  0.6+    030522 945 (2.1-  0.7+)   030603 048  0.1+  0.2-
030417 H41  0.5+  0.9-    030522 620  0.1-  0.3+    030603 048  0.1-  0.2-
030417 H41  0.8-  0.2-    030522 620  0.1+  0.1+    030603 048  0.7+  0.1+
030418 170  0.2-  0.0     030522 620  0.0   0.3+    030603 048  0.5+  0.1+
030418 170  0.0   0.0     030522 620  0.0   0.2+    030603 048  0.2-  0.2-
030421 939  0.7-  0.0     030522 620  0.1-  0.2+    030603 048  0.2+  0.2-
030421 939  0.8-  0.0     030522 620  0.0   0.3+    030604 048  0.1+  0.2+
030421 939  0.9-  0.1+    030522 620  0.1-  0.2+    030604 048  0.2-  0.5+
030421 213  0.4+  0.3+    030522 620  0.1-  0.2+    030604 048  0.8-  0.1-
030421 213  0.1+  0.6+    030522 620  0.0   0.1+    030604 048  0.2-  0.4+
030421 213  0.0   0.5+    030522 620  0.0   0.3+    030604 048  0.6+  0.0
030421 170  0.2+  0.1+    030522 H41 (2.1-  0.1-)   030604 048  0.6+  0.0
030421 170  0.6-  0.2+    030522 H41  0.2-  0.7+    030604 048  0.0   0.2+
030421 170  0.2-  0.8+    030522 213  0.1+  0.6+    030604 048  0.3-  0.3+
030421 H41  0.3-  0.6+    030522 213  0.0   0.0     030604 048  0.8-  0.3-
030422 118  0.0   0.2+    030522 213  0.1-  0.4-    030604 048  0.2-  0.2-
030422 118  0.3+  0.3+    030523 048  0.0   0.4+    030604 048  0.8-  0.1+
030422 118  0.1+  0.3+    030523 048  0.2+  0.4+    030604 048  0.5-  0.0
030422 H41  0.2+  0.4+    030523 048  0.1-  0.1+    030604 048  0.2-  0.1-
030422 H41  0.0   0.0     030523 048  0.4+  0.7+    030604 048  0.5-  0.1-
030425 H41  0.3-  1.1+    030523 048  0.1+  0.7+    030604 048  0.1+  0.4-
030425 H41  0.2+  0.8+    030523 048  0.5+  0.2+    030605 360  0.4-  0.6+
030426 213  0.6-  0.2+    030523 048  0.6+  0.2+    030605 360  0.1-  0.4+
030426 213  0.1-  0.2+    030523 048  0.1-  0.1-    030605 945  0.3-  1.0-
030426 232  0.2+  1.2-    030523 048  0.2+  0.2+    030605 945  0.2-  1.1-
030426 232  0.0   1.6+    030523 048  0.1+  0.1-    030605 945  0.5-  1.1-
030426 232  0.7+  0.4+    030523 H41  0.2-  0.5+    030605 945  0.7-  0.9-
030426 212  0.4+  0.3+    030523 H41  0.4-  0.1-    030605 945  0.9-  1.1-
030426 212  0.4+  0.5+    030523 360  0.1+  0.7+    030606 945  0.1+  1.1-
030426 212  0.5+  0.9+    030523 360  0.0   0.6+    030606 945  0.0   1.1-
030427 349  0.2-  0.7+    030524 212  0.3+  0.3-    030606 945  0.1+  0.9-
030427 349  0.2+  0.3+    030524 212  0.3+  0.2-    030606 945  0.1-  1.3-
030427 340  0.2-  0.4-    030524 212  0.4+  0.4-    030606 945  0.2-  1.5-
030427 340  0.0   0.2+    030524 232  1.2+  0.5+    030607 048  0.7+  0.9-
030427 340  0.1-  1.1+    030524 232  1.0+  1.3+    030607 048  0.7+  0.9-
030427 340  1.1-  0.3-    030524 232  0.1-  0.2+    030607 048  0.6+  0.5-
030430 360  0.2+  0.4+    030524 A02 (2.5+  1.1-)   030607 048  0.6+  0.5-
030430 360  0.1+  0.1+    030524 A02 (2.3+  1.0-)   030607 048  0.5-  0.6-
030430 213  0.2-  0.2+    030524 939  0.1-  0.6-    030607 048  0.5-  0.6-
030430 213  0.1-  0.1+    030524 A02  1.8+  1.0-    030607 048 (2.2+  0.3+)
030430 213  0.1-  0.1-    030524 939  0.4-  0.5-    030607 048 (2.2+  0.3+)
030501 939  0.4-  0.0     030524 939  0.5-  0.5-    030607 048 (2.2+  0.5-)
030501 939  0.6-  0.3-    030524 H41  0.2-  0.0     030607 048 (2.2+  0.5-)
030501 939  0.7-  0.5-    030524 322  1.2-  0.1-    030607 048  0.4+  0.2-
030501 H41 (0.5+  2.1+)   030524 322  0.2-  0.3-    030607 048  0.4+  0.2-
030501 349  0.3-  0.2-    030524 322  0.1+  1.1-    030607 048  1.1+  0.6-
030501 349  0.2-  0.2+    030525 616  0.0   0.2+    030607 048  1.1+  0.6-
030501 349  0.1-  0.0     030525 616  0.5-  0.5-    030607 048 (3.1+  1.2-)
030501 349  0.1-  0.3+    030525 616  0.1+  0.7-    030607 048 (3.1+  1.2-)
030501 349  0.5+  0.1-    030525 616  0.1-  0.4+    030607 048  0.7+  1.2-
030502 H41  0.8-  0.4+    030525 616  0.4+  0.3+    030607 048  0.7+  1.2-
030502 H41  1.0-  0.2+    030525 616  0.8+  0.5+    030607 048  0.2+  0.2-
030502 340  0.0   0.9-    030525 616  0.0   0.1+    030607 048  0.2+  0.2-
030502 340  0.6+  1.4-    030525 616  0.4+  0.4+    030607 048  0.2-  0.5-
030502 340  0.6+  0.9-    030525 616  1.1+  0.8+    030607 048  0.2-  0.5-
030503 939  0.4-  0.3-    030525 616  0.1+  0.6+    030607 048  1.1+  0.9+
030503 939  0.1+  1.1-    030526 H41  0.4-  0.6+    030607 048  1.1+  0.9+
030503 939 (1.1+  3.1-)   030526 H41  0.0   0.4+    030607 048  0.8+  0.2-
030503 213 (2.8+  0.2+)   030527 A32  0.6+  0.7-    030607 048  0.8+  0.2-
030503 213  0.2+  0.6-    030527 A32  0.5+  0.6+    030607 048  1.2-  0.5-
030503 232  0.0   1.4+    030527 A32  0.7+  0.3-    030607 048  1.2-  0.5-
030503 232  0.0   1.2+    030527 H41  0.2-  0.3+    030607 048  0.5-  1.8+
030503 232  0.7-  0.8+    030527 H41  0.3+  0.4+    030607 048  0.5-  1.8+
030503 A01  0.0   0.8-    030527 H41  0.1+  0.2+    030607 704  1.3+  0.8-
030503 A01  0.1+  0.7-    030528 212  0.5+  0.7+    030607 704  1.1+  0.4+
030503 A01  0.4-  0.5-    030528 212  0.5+  0.8+    030607 704  0.8+  0.8+
030503 900  0.1+  0.7+    030528 212  0.7+  0.6+    030607 704  0.9+  0.8+
030503 900  1.8+  1.7+    030528 H41  0.1-  0.5+    030607 704  1.2-  0.4+
030503 349  0.3+  0.4+    030528 322  0.1-  0.0     030607 H41  0.5-  1.0+
030503 349  0.8+  0.7+    030528 355  0.3+  0.7-    030607 H41  0.5-  1.0+
030503 349  0.9+  0.6+    030528 349  0.2-  0.4-    030607 213  0.5+  0.1+
030503 349  0.5+  0.3+    030528 355  0.5+  0.4-    030607 213  0.3+  0.3-
030504 235  1.3+  1.5+    030528 349  0.2-  0.3-    030607 213  0.5+  0.3-
030504 166  0.1+  0.3+    030528 349  0.3-  0.0     030608 232  0.0   0.8+
030504 166  0.2+  0.2+    030528 355  0.5+  0.7-    030608 232  0.0   1.0+
030504 166  0.1+  0.3+    030528 349  0.4-  0.2-    030608 232  0.8-  0.6+
030504 166  0.1+  0.5+    030528 322  0.0   0.2-    030608 H41  0.1-  0.2+
030504 166  0.3-  0.7+    030528 322  0.0   0.2-    030608 H41  0.1+  0.6+
030504 616 (2.1+  1.6-)   030528 108  0.7+  0.5+    030609 H41  0.1-  0.4+
030504 616  0.8+  1.6-    030528 108  1.7+  1.1-    030609 H41  0.1-  0.3+
030504 616  0.9+  1.8-    030528 108  0.3+  2.0-    030609 H41  0.0   0.2+
030504 616  1.3+  2.0-    030528 108 (1.2-  2.9-)   030609 048  0.3+  0.3+
030504 616 (1.1+  2.4-)   030528 A18  0.5-  0.1-    030609 048  0.4-  0.8+
030504 616 (0.8+  2.4-)   030529 A32  0.4+  0.2-    030609 048  0.2+  0.8+
030504 616 (0.6+  2.2-)   030529 A32  0.1-  0.1+    030609 048  0.4-  0.7+
030504 616  0.9+  1.7-    030529 A32  0.0   0.2-    030609 048  0.3-  0.6+
030504 616  0.2+  1.7-    030529 750  0.0   0.5+    030609 048  0.3+  0.6+
030504 616  0.6-  1.5-    030529 750  0.1-  0.7+    030609 048  0.8+  0.8+
030504 A33  0.1+  0.4+    030529 750  0.0   0.5+    030609 048  0.5+  0.9+
030504 A33  0.6+  0.7+    030529 H41  0.2-  0.2+    030609 048  0.6+  0.4+
030504 A33  0.3+  0.8+    030529 213  0.9+  0.6-    030609 048  0.2-  0.7+
030504 A02  1.0+  0.9-    030529 213  1.8+  0.8-    030610 213  0.0   0.3+
030504 A02  0.4+  0.7-    030529 213  0.7+  0.1-    030610 213  0.0   0.2+
030504 A02  0.0   0.5-    030530 A32  0.5+  0.4+    030610 213  0.1+  0.1-
030504 048  0.9-  0.9-    030530 A32  0.5+  0.5+    030616 785  0.8-  1.0+
030504 048  0.0   0.5-    030530 A32  0.6+  0.1+    030616 785  0.2-  0.9-
030504 048  0.2+  0.6-    030530 H41  0.7-  0.4+    030616 785  1.3+  0.3-

